Location: Campillo
(40.8621°N, 4.2488°W)
Time: 19:16:16
(UTC+00:00)

Cosmos 2154 Rocket - Pass Details

Date: 27 September 2021
Orbit: 965 x 997 km, 82.9° (Epoch: 21 October)

Event Time Altitude Azimuth Distance (km) Brightness Sun altitude
Rises 04:43:40 0° 8° (N) 3,703 7.3 -17.0°
Reaches altitude 10° 04:47:20 10° 29° (NNE) 2,743 6.9 -16.3°
Maximum altitude 04:51:07 16° 66° (ENE) 2,302 7.1 -15.6°
Drops below altitude 10° 04:54:51 10° 104° (ESE) 2,720 7.4 -14.9°
Sets 04:58:26 0° 125° (SE) 3,657 7.7 -14.2°
